Location: Hac?musa Deresi
(39.1694°N, 32.2508°E)
Time: 22:43:57
(UTC+00:00)

USA 59 Rocket - Pass Details

Date: 22 April 2026
Orbit: 367 x 1664 km, 63.3° (Epoch: 9 May)

Event Time Altitude Azimuth Distance (km) Brightness Sun altitude
Rises 18:14:56 0° 321° (NW) 2,485 4.6 -18.3°
Reaches altitude 10° 18:16:48 10° 318° (NW) 1,715 3.5 -18.6°
Maximum altitude 18:20:31 60° 238° (WSW) 702 0.4 -19.2°
Enters shadow 18:22:36 31° 171° (S) 1,186 1.1 -19.5°
